Wind_Speed
9 9 9 9 9 9 9 8 9 9 9 9 9 9 10 10 10 10 10 11 11 11 11 11 11 11 12 12 12 12 12 12 12 12 13 13 13 14 14 13 14 14 14 14
9 9 10 10 10 9 9 9 10 10 10 10 10 10 11 11 11 11 11 11 11 12 12 12 13 13 13 13 13 13 13 13 13 13 13 14 14 14 14 14 14 14 14 15
9 10 10 10 10 10 10 10 10 11 11 11 11 11 12 12 12 12 12 12 12 12 13 13 13 13 14 14 15 14 14 14 14 14 14 15 15 15 15 15 14 15 15 15
9 9 9 9 10 10 10 11 11 12 12 12 12 12 13 13 13 13 13 13 13 13 14 14 14 14 15 15 15 15 15 15 15 15 16 16 16 16 16 16 16 15 15 15
9 9 8 9 10 10 11 11 11 12 12 12 12 13 13 13 13 13 14 14 14 14 14 14 15 15 16 16 16 15 16 16 16 16 16 16 16 16 16 16 16 16 16 16
9 9 9 9 10 10 11 11 12 12 12 12 13 13 13 13 13 14 14 14 14 15 15 15 15 16 16 16 16 16 16 16 16 16 16 16 16 15 15 16 16 17 17 16
9 9 10 10 10 11 11 11 12 12 13 13 13 13 13 14 14 14 14 14 14 14 14 15 16 16 16 16 16 16 17 17 17 16 16 15 15 15 16 16 17 17 17 17
10 10 11 11 11 12 11 12 12 13 13 13 13 13 14 14 15 15 15 15 15 15 15 16 16 16 16 17 17 17 17 17 17 16 16 16 15 15 16 17 17 17 18 17
11 11 12 12 12 12 12 13 13 14 14 14 14 14 14 15 15 15 15 16 15 15 16 16 17 17 17 17 18 18 18 18 17 17 17 17 16 15 16 17 17 18 19 18
12 13 13 13 13 13 14 14 14 15 15 15 14 14 15 15 15 15 16 16 16 16 17 17 18 18 18 18 18 19 19 19 18 18 17 17 18 17 17 18 18 19 19 19
14 14 14 14 14 15 15 15 15 16 16 16 15 15 15 16 16 17 17 17 17 17 18 18 18 19 19 19 19 19 19 19 19 18 18 18 18 18 18 19 20 19 19 19
14 15 16 15 16 16 16 16 17 17 17 17 17 17 17 17 17 18 18 18 19 19 19 19 19 19 19 19 19 19 19 20 20 20 19 19 19 19 19 20 20 21 21 20
15 16 16 16 17 17 17 17 18 19 19 19 19 19 18 18 19 19 19 20 20 20 20 20 20 20 20 20 20 21 20 21 21 21 20 20 20 20 20 20 21 21 22 21
16 17 17 17 18 18 18 18 19 20 20 20 20 20 20 20 20 21 20 20 21 21 21 20 21 21 21 21 21 21 22 22 21 21 22 22 21 21 21 21 21 22 22 22
18 18 18 18 19 19 18 19 20 21 20 21 20 21 21 21 21 22 21 21 21 21 21 21 21 22 22 22 22 23 23 23 23 23 23 23 22 22 22 22 22 22 22 23
19 19 19 19 19 20 19 19 20 21 21 21 21 21 21 21 22 22 22 22 22 22 22 22 22 23 23 24 24 24 24 24 24 24 24 23 23 24 23 23 23 23 23 24
19 20 20 20 20 21 20 19 20 21 21 22 22 21 22 22 22 22 23 23 23 23 23 23 24 24 24 24 24 24 24 25 25 25 24 24 24 24 24 24 24 24 24 25
20 20 21 21 22 22 21 20 20 21 21 22 22 22 22 23 23 23 23 23 23 23 23 24 24 24 24 24 25 25 25 26 26 25 25 25 25 25 26 25 25 25 26 26
21 21 22 23 23 23 22 21 21 22 22 22 23 23 24 23 23 23 23 23 23 24 24 24 24 24 24 25 25 26 27 27 27 26 26 26 26 26 26 26 26 25 26 26
22 22 23 23 24 24 23 23 22 23 23 22 23 23 23 23 23 23 24 24 24 24 25 25 25 25 25 26 26 26 27 27 26 26 26 26 26 26 27 26 26 26 27 26
23 23 24 24 25 25 24 24 24 24 25 24 24 24 24 24 24 24 25 25 25 25 25 26 26 26 26 27 27 27 27 26 26 26 26 26 27 27 27 27 27 27 27 27
24 25 25 25 25 25 25 25 25 26 26 26 26 26 25 25 25 25 25 26 25 25 26 27 27 27 28 28 28 27 27 26 26 26 27 27 27 27 28 28 28 28 27 27
25 25 26 26 26 26 26 27 27 28 28 27 27 27 26 26 26 26 26 26 26 26 26 27 28 28 28 28 28 28 27 27 27 27 27 27 27 27 28 28 28 28 27 27
27 27 27 28 27 28 28 29 29 29 29 28 28 28 27 27 26 26 26 26 26 26 26 27 27 28 28 28 28 27 27 27 28 28 28 27 28 28 28 28 28 28 28 28
28 28 29 29 29 30 30 30 30 30 29 29 28 28 28 27 27 27 27 27 27 28 27 27 28 28 28 28 28 28 28 28 29 29 29 29 28 28 28 29 29 29 29 29
28 29 30 30 30 31 31 31 30 30 30 29 29 29 29 29 28 28 27 28 28 28 28 28 28 28 27 28 28 28 28 29 29 29 29 29 28 29 29 29 30 30 30 30
Wind_Direction
256 252 251 251 252 253 255 257 257 260 265 268 270 273 276 278 279 280 279 279 278 279 281 283 286 288 289 290 292 292 292 291 289 287 284 281 280 279 277 274 271 266 266 268
254 251 251 251 252 252 255 259 260 262 268 272 269 271 275 279 280 281 280 280 278 278 281 283 286 287 289 289 289 289 289 289 288 287 285 282 281 279 277 276 273 269 268 269
254 252 253 253 253 254 257 261 266 271 274 275 272 270 274 277 279 281 282 280 278 279 282 284 285 286 287 289 289 288 287 288 289 288 285 284 282 278 274 273 273 273 270 269
256 255 253 252 252 255 260 264 269 275 278 276 276 274 275 276 278 280 281 281 281 280 282 284 285 285 286 288 289 289 288 288 287 286 286 284 280 277 273 271 273 274 274 272
259 256 253 254 256 258 260 265 271 276 277 276 275 275 275 276 279 280 280 281 283 283 282 281 282 283 286 289 289 288 289 288 289 287 285 283 279 278 275 272 272 273 273 273
258 256 255 257 258 259 262 267 272 275 277 275 277 275 275 279 281 280 280 282 283 282 281 280 280 282 286 288 290 290 291 290 290 289 286 284 281 279 276 272 273 273 272 271
258 258 259 261 262 263 264 269 274 277 277 277 279 276 275 279 280 279 280 281 282 281 280 280 282 283 286 290 291 291 292 293 292 289 288 285 282 280 278 273 273 272 271 271
258 258 262 264 265 267 267 268 271 274 276 280 281 280 278 279 280 280 281 281 280 279 279 281 283 285 287 289 290 290 292 293 294 291 289 285 283 281 280 275 273 272 271 270
258 260 265 267 267 267 268 269 271 276 279 282 284 283 280 280 280 281 281 282 281 279 278 280 284 285 285 286 287 290 290 292 293 292 290 285 283 283 281 278 274 273 271 269
261 264 266 269 269 269 268 270 273 277 281 284 285 285 283 281 281 282 281 281 281 280 279 281 283 284 285 284 286 290 291 291 291 291 288 284 282 282 280 280 277 275 273 269
264 265 268 270 270 271 271 271 273 276 279 282 284 284 284 282 282 281 282 280 279 278 277 278 281 283 282 283 285 287 290 291 291 290 287 283 280 281 280 281 279 278 274 271
266 266 267 269 269 271 272 273 275 278 281 281 282 282 284 283 283 282 282 281 278 277 277 279 281 281 282 283 284 286 287 290 291 288 286 283 280 281 282 281 280 278 276 275
267 268 269 269 270 271 272 274 276 277 278 280 282 283 285 283 283 283 282 281 280 278 278 278 280 280 281 283 284 285 286 289 290 288 286 283 282 282 282 281 281 279 278 277
268 270 270 270 272 274 272 272 275 277 278 281 281 282 283 283 282 282 283 282 282 278 277 278 279 280 282 283 284 285 287 288 289 288 285 283 283 282 281 281 281 279 277 276
270 271 270 272 274 276 276 276 277 278 279 281 281 281 282 281 282 282 283 283 281 279 279 278 278 279 281 283 283 286 287 287 287 289 286 284 281 280 280 280 280 279 278 277
273 274 274 273 275 277 277 279 280 280 281 281 281 282 281 281 281 282 283 283 281 280 279 278 279 280 280 281 282 283 285 285 285 287 286 283 281 279 279 280 280 279 279 278
272 274 275 276 275 276 278 281 281 281 282 282 281 282 281 282 282 282 283 284 282 280 280 280 279 281 282 283 282 282 283 284 285 286 285 283 281 280 280 281 281 280 280 280
271 274 276 277 278 277 280 280 280 281 281 281 281 282 285 284 283 284 284 285 284 282 281 281 280 282 282 283 283 282 282 284 285 286 285 283 283 282 282 281 281 280 280 280
271 273 274 276 278 280 280 280 280 280 280 282 282 283 284 284 284 283 283 283 283 283 282 282 281 281 282 283 284 284 283 284 284 284 284 284 283 283 282 282 282 282 281 279
269 271 272 275 278 280 282 281 280 281 281 281 281 282 283 284 284 283 283 284 283 282 282 281 281 281 282 284 285 285 285 284 283 283 283 283 283 283 282 282 283 283 281 280
269 270 272 275 277 279 281 281 281 281 282 282 281 282 283 284 284 283 282 282 282 281 281 281 282 282 282 283 283 284 284 283 282 282 283 282 283 283 282 282 283 283 282 281
268 270 271 274 277 279 280 281 281 281 281 281 281 282 283 283 283 281 280 281 281 281 282 283 282 283 282 282 282 282 282 282 282 282 282 282 282 282 281 282 283 282 281 280
268 270 272 273 276 277 279 280 281 281 281 281 281 281 282 282 282 281 280 281 282 283 283 283 283 283 284 283 282 281 281 282 282 283 283 282 281 282 282 282 282 281 281 281
269 271 272 273 274 276 277 279 280 282 282 281 281 281 282 281 280 279 280 280 281 283 284 286 285 284 284 283 282 281 281 281 282 282 283 282 282 281 281 282 282 281 281 283
270 272 273 273 274 275 278 279 280 281 282 281 281 281 280 280 279 278 278 279 281 283 285 287 287 286 285 284 283 282 281 281 281 281 282 283 282 281 281 281 282 282 281 282
271 272 273 273 274 275 278 279 280 280 281 282 282 281 280 280 279 279 279 279 281 283 285 287 288 286 285 284 283 281 282 282 282 281 282 282 282 281 281 281 281 282 282 282
Height
5845 5847 5847 5847 5848 5849 5849 5850 5850 5850 5850 5850 5850 5849 5849 5848 5848 5847 5847 5847 5846 5845 5844 5844 5843 5842 5841 5840 5839 5837 5836 5835 5834 5833 5833 5832 5831 5830 5830 5829 5828 5828 5827 5827
5843 5843 5844 5844 5845 5846 5846 5847 5847 5847 5847 5847 5847 5847 5846 5845 5845 5845 5844 5844 5843 5842 5841 5841 5840 5839 5838 5837 5836 5834 5833 5832 5831 5830 5829 5828 5827 5827 5826 5825 5825 5824 5824 5824
5840 5841 5841 5842 5843 5843 5844 5844 5844 5845 5845 5844 5844 5844 5843 5843 5842 5842 5841 5840 5840 5839 5838 5837 5836 5836 5834 5833 5832 5831 5830 5828 5827 5826 5825 5824 5823 5823 5822 5822 5821 5821 5820 5820
5837 5838 5839 5839 5840 5840 5841 5841 5842 5842 5842 5841 5842 5841 5841 5840 5839 5839 5838 5837 5836 5835 5834 5834 5833 5832 5831 5830 5829 5827 5826 5825 5823 5822 5821 5820 5819 5818 5818 5817 5817 5817 5816 5816
5835 5835 5836 5837 5837 5837 5838 5838 5839 5838 5838 5838 5838 5838 5838 5836 5836 5835 5834 5833 5832 5832 5831 5830 5829 5828 5827 5826 5825 5824 5822 5821 5820 5818 5817 5816 5815 5814 5813 5813 5813 5813 5812 5812
5832 5833 5833 5834 5834 5834 5835 5835 5835 5835 5835 5835 5835 5835 5834 5833 5832 5831 5830 5829 5829 5828 5827 5826 5825 5825 5824 5822 5821 5820 5819 5817 5816 5814 5813 5811 5810 5810 5809 5809 5808 5808 5808 5807
5830 5830 5830 5831 5831 5832 5832 5833 5832 5832 5832 5832 5831 5830 5831 5829 5828 5827 5826 5825 5824 5824 5823 5822 5821 5820 5819 5818 5817 5816 5815 5813 5812 5810 5809 5807 5806 5806 5805 5804 5804 5803 5803 5803
5827 5828 5828 5828 5828 5828 5828 5829 5830 5830 5829 5828 5827 5826 5827 5825 5824 5823 5822 5821 5820 5819 5819 5818 5817 5816 5815 5814 5813 5812 5810 5809 5807 5806 5804 5803 5802 5801 5800 5800 5799 5798 5798 5798
5824 5824 5824 5824 5824 5825 5825 5825 5825 5825 5824 5824 5823 5823 5822 5821 5820 5819 5818 5817 5816 5815 5815 5814 5813 5812 5811 5810 5809 5807 5806 5804 5803 5801 5800 5798 5797 5796 5796 5795 5794 5793 5793 5792
5820 5821 5821 5820 5820 5820 5821 5821 5821 5820 5820 5820 5820 5819 5818 5816 5815 5814 5813 5812 5812 5811 5810 5809 5809 5808 5807 5805 5804 5803 5801 5800 5798 5797 5795 5794 5792 5791 5791 5790 5789 5788 5788 5787
5816 5817 5817 5817 5817 5816 5817 5817 5816 5816 5816 5816 5815 5817 5813 5812 5811 5810 5809 5808 5807 5806 5805 5805 5804 5803 5801 5800 5799 5798 5797 5795 5793 5792 5790 5789 5788 5786 5786 5785 5784 5783 5782 5782
5812 5812 5812 5812 5812 5812 5812 5812 5812 5812 5811 5810 5810 5813 5808 5807 5806 5805 5804 5803 5802 5801 5800 5799 5798 5797 5796 5795 5794 5793 5791 5790 5788 5786 5785 5783 5782 5781 5780 5779 5778 5777 5776 5776
5807 5808 5808 5808 5809 5808 5807 5807 5806 5806 5805 5805 5805 5807 5803 5802 5800 5799 5798 5797 5797 5796 5795 5794 5793 5792 5791 5790 5788 5787 5786 5785 5783 5781 5779 5778 5777 5776 5774 5773 5772 5772 5771 5770
5802 5803 5804 5804 5803 5802 5802 5802 5801 5800 5799 5799 5800 5799 5797 5796 5794 5794 5793 5792 5791 5790 5789 5788 5787 5786 5785 5784 5783 5781 5780 5779 5777 5775 5774 5772 5771 5769 5768 5767 5766 5765 5764 5763
5797 5797 5797 5797 5797 5796 5796 5796 5795 5794 5794 5793 5793 5792 5791 5789 5788 5787 5786 5786 5785 5784 5783 5782 5781 5780 5779 5778 5777 5775 5774 5772 5771 5769 5767 5766 5764 5763 5761 5760 5759 5758 5758 5757
5791 5791 5791 5791 5791 5790 5790 5790 5789 5788 5787 5786 5786 5786 5784 5783 5782 5781 5780 5779 5778 5777 5777 5776 5775 5774 5773 5772 5770 5769 5767 5766 5764 5762 5760 5759 5757 5756 5755 5754 5753 5752 5750 5749
5786 5786 5785 5785 5785 5784 5784 5785 5783 5782 5781 5780 5779 5780 5777 5776 5775 5774 5773 5772 5771 5770 5769 5769 5768 5767 5766 5765 5763 5762 5760 5759 5757 5755 5753 5752 5750 5749 5748 5747 5746 5744 5743 5742
5780 5779 5779 5779 5779 5778 5781 5778 5777 5776 5775 5774 5773 5772 5771 5770 5769 5767 5766 5765 5764 5763 5762 5761 5760 5759 5758 5757 5756 5754 5753 5751 5750 5748 5746 5744 5743 5742 5741 5740 5738 5737 5735 5734
5774 5773 5773 5772 5771 5771 5772 5771 5770 5769 5769 5768 5766 5765 5764 5763 5762 5761 5759 5758 5757 5756 5755 5754 5753 5752 5751 5750 5748 5747 5745 5743 5742 5740 5739 5737 5735 5734 5733 5731 5730 5729 5727 5726
5767 5767 5767 5765 5765 5764 5766 5764 5763 5763 5762 5761 5759 5758 5757 5756 5755 5754 5752 5751 5750 5749 5747 5746 5746 5744 5743 5742 5740 5738 5737 5735 5734 5732 5731 5729 5728 5726 5725 5724 5722 5721 5719 5718
5760 5759 5759 5758 5757 5757 5758 5756 5756 5756 5756 5753 5752 5751 5750 5749 5748 5747 5745 5743 5742 5741 5740 5739 5738 5737 5735 5734 5732 5730 5729 5727 5726 5724 5722 5721 5719 5718 5716 5715 5714 5712 5711 5709
5752 5752 5752 5751 5750 5752 5749 5748 5748 5748 5746 5745 5744 5743 5742 5741 5740 5738 5737 5736 5735 5733 5732 5731 5729 5728 5727 5725 5723 5722 5720 5719 5717 5716 5714 5712 5711 5709 5708 5706 5705 5703 5702 5700
5744 5745 5744 5744 5745 5743 5741 5740 5739 5738 5738 5737 5736 5735 5734 5733 5732 5730 5729 5728 5727 5725 5724 5723 5721 5719 5718 5716 5714 5713 5711 5710 5708 5707 5705 5703 5702 5700 5699 5697 5696 5694 5693 5691
5736 5736 5736 5735 5735 5734 5733 5732 5731 5730 5729 5728 5727 5726 5725 5724 5723 5722 5721 5720 5718 5717 5716 5714 5712 5711 5709 5707 5705 5704 5702 5701 5699 5698 5696 5695 5693 5691 5690 5688 5687 5685 5684 5682
5727 5727 5726 5726 5726 5725 5724 5723 5722 5721 5720 5719 5718 5717 5716 5715 5715 5714 5712 5711 5710 5709 5707 5705 5703 5702 5700 5698 5696 5695 5693 5691 5690 5688 5687 5685 5683 5682 5680 5679 5677 5676 5675 5673
5719 5718 5717 5717 5717 5716 5715 5714 5713 5712 5711 5710 5709 5708 5707 5706 5705 5704 5703 5702 5701 5700 5698 5696 5694 5692 5691 5689 5687 5685 5684 5682 5680 5679 5677 5676 5674 5672 5670 5669 5667 5665 5664 5663